[[{"header":{"parameterUnit":"m.s-1","parameterCategory":1,"la1":30.2991,"la2":30.254,"lo1":-89.0895,"lo2":-89.0444,"dy":0.0017,"dx":0.0017,"nx":28,"ny":28,"refTime":"2024-07-16T21:00:00:Z","depth":0,"parameterNumber":2,"parameterNumberName":"U-component_of_WINDS"},"data":[0,0,0,0,0,0,0,0,0,0,0,0,0,0,0,0,0,0,0,0,0,0,0,0,0,0,0,0,0,0,0,0,0,0,0,0,0,0,0,0,0,0,0,0,0,0,0,0,0,0,0,0,0,0,0,0,0,0,1.2763,1.2764,0,1.2842,1.2842,1.2843,1.2894,1.2894,1.2894,1.2895,1.2976,1.2977,1.2979,0,0,0,0,0,0,0,0,0,0,0,0,0,1.2656,1.2658,1.2763,1.2764,1.2765,1.2841,1.2843,1.2844,1.2894,1.2894,1.2894,1.2895,1.2975,1.2977,1.2979,0,0,0,0,0,0,0,0,0,0,0,0,0,1.2715,1.2658,1.2762,1.2799,1.2803,1.2841,1.2843,1.2844,1.2894,1.2894,1.2895,1.2895,1.2974,1.2977,1.298,1.2988,0,0,1.2988,1.299,0,0,0,0,0,0,0,0,1.2712,1.2719,1.2793,1.2796,1.2801,1.2858,1.2835,1.2892,1.2894,1.2859,1.2895,1.2895,1.2936,1.2942,1.2956,1.2992,1.2995,1.2989,1.299,1.2991,1.2992,0,0,0,0,0,0,0,1.2708,1.2716,1.2794,1.2794,1.2799,1.2812,1.282,1.2846,1.2894,1.2862,1.2866,1.2875,1.2939,1.2953,1.2958,1.2996,1.2988,1.2991,1.2993,1.2994,1.3044,1.3044,0,0,0,0,0,0,1.2698,1.2712,1.2791,1.2796,1.2757,1.2813,1.2823,1.2839,1.2894,1.2903,1.2874,1.2877,1.2948,1.2955,1.2961,1.2975,1.2991,1.2994,1.2996,1.3045,1.3044,1.3044,0,0,0,0,0,0,1.2695,1.2704,1.2788,1.2755,1.2767,1.2814,1.2832,1.2841,1.2855,1.2903,1.2912,1.288,1.2949,1.2957,1.2981,1.2979,1.2995,1.2998,1.3045,1.3045,1.3044,1.3003,0,0,0,0,0,0,1.2692,1.2703,1.2707,1.2755,1.2769,1.2806,1.2832,1.2842,1.286,1.2864,1.2911,1.2919,1.295,1.2977,1.2984,1.2983,1.3,1.3046,1.3045,1.3044,1.3005,1.3001,1.2998,0,0,0,0,0,1.2688,1.2692,1.2706,1.2716,1.2774,1.2806,1.2814,1.2849,1.286,1.2864,1.2895,1.2918,1.2978,1.2979,1.2987,1.2987,1.3046,1.3045,1.3044,1.3006,1.3002,1.2998,0,0,0,0,0,0,1.2641,1.2699,1.2716,1.2735,1.2765,1.2815,1.2821,1.2843,1.2871,1.2873,1.2916,1.2926,1.2946,1.2969,1.2969,1.2999,1.3015,1.3016,1.2983,1.2979,1.2976,1.297,1.3002,0,0,0,0,0,1.2633,1.2654,1.2704,1.2716,1.273,1.2773,1.2788,1.2812,1.2846,1.2859,1.2891,1.2923,1.2949,1.2965,1.2992,1.3008,1.302,1.3013,1.3009,1.3006,1.3006,1.3018,1.3015,1.3041,1.3041,1.3041,0,0,1.2616,1.265,1.2661,1.2707,1.2734,1.2755,1.2783,1.2804,1.2821,1.2862,1.2887,1.2912,1.295,1.297,1.2981,1.299,1.3002,1.3005,1.3002,1.3004,1.3017,1.3014,1.3012,1.3041,1.3041,1.3041,0,0,1.2597,1.2625,1.2639,1.2665,1.2705,1.2733,1.2736,1.2783,1.2801,1.2826,1.2858,1.2878,1.2922,1.2948,1.2967,1.2959,1.2982,1.2967,1.2949,1.296,1.2957,1.2956,1.2953,1.2952,1.2967,1.2967,1.2967,0,1.2571,1.2605,1.2643,1.2663,1.2682,1.2721,1.2735,1.2759,1.2805,1.2818,1.2828,1.2884,1.2913,1.294,1.2938,1.2952,1.2958,1.2961,1.2955,1.2953,1.2953,1.2951,1.295,1.2965,1.2965,1.2965,1.2965,0,1.2572,1.2595,1.2601,1.2645,1.2666,1.2682,1.2723,1.2739,1.2762,1.279,1.2816,1.2851,1.2886,1.2894,1.2917,1.2925,1.293,1.2947,1.2964,1.2947,1.2946,1.2946,1.2962,1.2962,1.2963,1.2964,0,0,1.2525,1.259,1.2592,1.2613,1.266,1.2679,1.2698,1.2732,1.2745,1.2776,1.2794,1.2831,1.2847,1.2868,1.2894,1.2903,1.2895,1.2919,1.2921,1.2914,1.2908,1.2895,1.2894,1.2911,1.2911,1.2911,1.2905,0,1.2513,1.2549,1.2584,1.2608,1.263,1.2667,1.2684,1.2715,1.2741,1.2764,1.2794,1.2819,1.2838,1.2852,1.2863,1.2894,1.2895,1.2895,1.2928,1.2929,1.2917,1.2893,1.2879,1.2872,1.2905,1.2905,1.2905,0,1.2503,1.2533,1.2559,1.2605,1.2616,1.263,1.2665,1.2686,1.2723,1.2741,1.2766,1.2793,1.2816,1.2831,1.2863,1.2862,1.2878,1.2895,1.2896,1.29,1.2915,1.2897,1.287,1.2869,1.2904,1.2904,1.2904,0,1.2467,1.2513,1.2535,1.2552,1.2606,1.2616,1.2639,1.2676,1.2694,1.2725,1.2738,1.277,1.2788,1.2813,1.2849,1.2856,1.2877,1.2895,1.2894,1.2893,1.2896,1.2896,1.2872,1.2906,1.2906,1.2906,1.2906,0,1.245,1.2464,1.252,1.2533,1.2551,1.2591,1.2608,1.2634,1.2667,1.2686,1.2721,1.2738,1.2785,1.2808,1.2836,1.2859,1.2867,1.2883,1.289,1.288,1.2878,1.289,1.2892,1.2906,1.2906,1.2906,1.2906,0,1.2412,1.2449,1.2476,1.2525,1.2538,1.2549,1.2592,1.2606,1.2635,1.2659,1.2668,1.2713,1.2742,1.278,1.2822,1.2841,1.286,1.2872,1.2848,1.2852,1.2849,1.2849,1.2833,1.2833,1.2867,1.2866,1.2866,0,1.2399,1.2411,1.2462,1.2478,1.25,1.2524,1.2544,1.2584,1.2603,1.2646,1.2656,1.2688,1.2716,1.2761,1.2798,1.283,1.2842,1.2834,1.2847,1.2837,1.2842,1.2841,1.2843,1.2831,1.283,1.283,1.283,0,1.2371,1.239,1.2416,1.245,1.2472,1.25,1.253,1.2541,1.2588,1.2608,1.2638,1.266,1.2702,1.2734,1.2771,1.2795,1.282,1.2825,1.2827,1.2816,1.2802,1.281,1.2839,1.2825,1.2826,1.2826,1.2826,1.2827,1.2346,1.2359,1.2397,1.2426,1.2452,1.248,1.2496,1.2527,1.2554,1.2591,1.2614,1.2644,1.2681,1.2733,1.2757,1.2781,1.279,1.2792,1.2793,1.2793,1.279,1.2798,1.2788,1.2788,1.2788,1.2788,1.2788,0,1.232,1.2347,1.2373,1.2414,1.2437,1.2459,1.2493,1.2511,1.2537,1.2569,1.2596,1.2632,1.2663,1.2702,1.2736,1.2748,1.2761,1.2756,1.2755,1.2761,1.2779,1.2774,1.2745,1.2745,1.2745,1.2745,1.2745,1.2745,1.231,1.2333,1.2356,1.2393,1.242,1.2449,1.2467,1.2493,1.2519,1.2557,1.2583,1.2609,1.2645,1.2682,1.2711,1.2722,1.2733,1.2725,1.2739,1.2755,1.2759,1.2763,1.2759,1.2727,1.2727,1.2719,1.2719,1.2719]},{"header":{"parameterUnit":"m.s-1","parameterCategory":1,"la1":30.2991,"la2":30.254,"lo1":-89.0895,"lo2":-89.0444,"dy":0.0017,"dx":0.0017,"nx":28,"ny":28,"refTime":"2024-07-16T21:00:00:Z","depth":0,"parameterNumber":3,"parameterNumberName":"V-component_of_WINDS"},"data":[0,0,0,0,0,0,0,0,0,0,0,0,0,0,0,0,0,0,0,0,0,0,0,0,0,0,0,0,0,0,0,0,0,0,0,0,0,0,0,0,0,0,0,0,0,0,0,0,0,0,0,0,0,0,0,0,0,0,0.6248,0.6248,0,0.6202,0.6202,0.6201,0.6188,0.6189,0.6189,0.6189,0.6141,0.6139,0.6138,0,0,0,0,0,0,0,0,0,0,0,0,0,0.6324,0.6322,0.6249,0.6248,0.6247,0.6203,0.6202,0.6201,0.6188,0.6189,0.6189,0.6189,0.6141,0.614,0.6138,0,0,0,0,0,0,0,0,0,0,0,0,0,0.6286,0.6322,0.6249,0.6236,0.6234,0.6203,0.6202,0.6201,0.6188,0.6189,0.6189,0.6189,0.6142,0.614,0.6138,0.6116,0,0,0.6131,0.613,0,0,0,0,0,0,0,0,0.6288,0.6283,0.6238,0.6236,0.6235,0.6202,0.6211,0.6172,0.6188,0.6206,0.6189,0.619,0.6161,0.6157,0.6147,0.6113,0.6111,0.613,0.6129,0.6128,0.6127,0,0,0,0,0,0,0,0.629,0.6285,0.623,0.6237,0.6235,0.6231,0.6226,0.6203,0.6181,0.6204,0.6203,0.6198,0.616,0.615,0.6146,0.6111,0.613,0.6128,0.6127,0.6126,0.6055,0.6055,0,0,0,0,0,0,0.6295,0.6287,0.6232,0.6229,0.6263,0.623,0.6224,0.6212,0.6182,0.6178,0.6198,0.6197,0.6153,0.6149,0.6144,0.6116,0.6128,0.6126,0.6125,0.6056,0.6055,0.6054,0,0,0,0,0,0,0.6297,0.6291,0.6234,0.6258,0.625,0.6228,0.6214,0.6211,0.62,0.6177,0.6173,0.6191,0.6153,0.6148,0.6123,0.6114,0.6125,0.6123,0.6056,0.6055,0.6055,0.6059,0,0,0,0,0,0,0.6299,0.6291,0.6283,0.6258,0.6249,0.6213,0.6214,0.6209,0.6197,0.6196,0.617,0.6166,0.6153,0.6126,0.612,0.6111,0.6121,0.6057,0.6056,0.6055,0.606,0.6059,0.6058,0,0,0,0,0,0.6302,0.6286,0.6283,0.6276,0.6238,0.6213,0.6208,0.6194,0.6196,0.6187,0.6172,0.6167,0.6116,0.6124,0.6117,0.6107,0.6057,0.6056,0.6055,0.606,0.6059,0.6058,0,0,0,0,0,0,0.6311,0.6283,0.6279,0.6254,0.6236,0.6211,0.6199,0.6193,0.6174,0.6174,0.6157,0.6152,0.6127,0.6115,0.6124,0.6084,0.6087,0.6084,0.6093,0.6091,0.609,0.6094,0.6119,0,0,0,0,0,0.6311,0.6293,0.6269,0.6249,0.624,0.6221,0.621,0.6201,0.6181,0.6173,0.6156,0.6137,0.6116,0.6103,0.6083,0.6058,0.6052,0.6048,0.6047,0.6046,0.6044,0.6028,0.6026,0.6051,0.6051,0.6051,0,0,0.6309,0.6291,0.6281,0.6251,0.6235,0.6216,0.6215,0.6195,0.6181,0.617,0.6145,0.6132,0.6109,0.6084,0.6072,0.6072,0.6036,0.6045,0.6044,0.6042,0.6027,0.6025,0.6023,0.605,0.605,0.605,0,0,0.6296,0.6281,0.6263,0.6247,0.6224,0.6212,0.6207,0.6183,0.6173,0.6148,0.614,0.6122,0.6088,0.6072,0.6059,0.6039,0.6033,0.6033,0.6028,0.6013,0.6011,0.6009,0.6001,0.5998,0.6031,0.6031,0.6031,0,0.6296,0.6268,0.6254,0.6234,0.6221,0.6211,0.6192,0.6177,0.6149,0.614,0.6141,0.6097,0.6081,0.6051,0.6046,0.6037,0.6031,0.6035,0.6012,0.601,0.6008,0.6,0.5998,0.6031,0.6031,0.6031,0.6031,0,0.6269,0.6249,0.6237,0.621,0.6195,0.6176,0.6159,0.6146,0.6138,0.6125,0.6099,0.608,0.6055,0.6047,0.604,0.6016,0.6017,0.6016,0.6018,0.6006,0.5999,0.5995,0.6031,0.6031,0.6031,0.6031,0,0,0.626,0.6225,0.6221,0.6208,0.6182,0.6166,0.6146,0.6122,0.6111,0.6091,0.6074,0.6044,0.6043,0.6028,0.6019,0.6006,0.599,0.6006,0.6005,0.6003,0.5961,0.5962,0.5959,0.5986,0.5985,0.5985,0.5963,0,0.6243,0.6207,0.6194,0.6164,0.6145,0.6135,0.6117,0.6099,0.6086,0.6068,0.6053,0.6033,0.6033,0.6024,0.601,0.5995,0.5981,0.5996,0.5968,0.5967,0.5973,0.5955,0.5955,0.5936,0.596,0.5959,0.5959,0,0.6218,0.6198,0.6167,0.6142,0.6133,0.6118,0.6094,0.6077,0.6056,0.6047,0.6031,0.6022,0.6,0.6004,0.5973,0.5983,0.5971,0.5962,0.5961,0.5957,0.5962,0.5949,0.5929,0.5926,0.5954,0.5955,0.5955,0,0.6213,0.6179,0.6155,0.6145,0.6116,0.6105,0.6092,0.6071,0.6057,0.6037,0.6027,0.6005,0.5992,0.5974,0.5959,0.5964,0.5928,0.5932,0.592,0.592,0.5912,0.5913,0.5889,0.5906,0.5906,0.5906,0.5906,0,0.6195,0.6176,0.6153,0.6138,0.6116,0.6101,0.6079,0.6066,0.6047,0.6029,0.6019,0.6002,0.5984,0.5964,0.5952,0.5927,0.5922,0.5914,0.5911,0.5914,0.5915,0.5905,0.5906,0.5906,0.5906,0.5906,0.5906,0,0.6186,0.617,0.6143,0.6118,0.6111,0.6095,0.6073,0.6058,0.6045,0.6022,0.6016,0.5995,0.5972,0.5955,0.5925,0.5917,0.589,0.5887,0.5897,0.5895,0.5884,0.5885,0.5852,0.5846,0.5869,0.5869,0.5868,0,0.6175,0.6159,0.6132,0.612,0.6107,0.6087,0.6073,0.6057,0.6042,0.6017,0.6004,0.598,0.596,0.5923,0.5905,0.5881,0.5878,0.5868,0.5874,0.5878,0.5876,0.5877,0.5875,0.5867,0.5866,0.5866,0.5866,0,0.6156,0.6149,0.6129,0.6106,0.609,0.6071,0.6052,0.6042,0.6023,0.6007,0.5983,0.5967,0.5936,0.5912,0.5887,0.5873,0.5866,0.5864,0.586,0.5863,0.5869,0.5865,0.5893,0.5865,0.5865,0.5865,0.5865,0.5865,0.6145,0.6131,0.6109,0.6087,0.6071,0.6053,0.6038,0.6023,0.6002,0.5976,0.5968,0.5943,0.5921,0.5886,0.5872,0.5852,0.5852,0.5846,0.5845,0.5843,0.5843,0.5873,0.5847,0.5847,0.5847,0.5847,0.5847,0,0.6125,0.611,0.609,0.6064,0.6046,0.6042,0.6021,0.6006,0.5984,0.5964,0.5945,0.5917,0.5893,0.5873,0.5848,0.5835,0.5832,0.5829,0.583,0.5826,0.5844,0.585,0.5833,0.5833,0.5833,0.5833,0.5833,0.5833,0.6112,0.6088,0.6078,0.6045,0.603,0.6006,0.5994,0.5977,0.5961,0.593,0.5911,0.5898,0.5878,0.5851,0.5829,0.5824,0.5814,0.5813,0.5807,0.5824,0.5825,0.5827,0.5832,0.5811,0.5811,0.579,0.579,0.579]}]]